[Iaude] MPEC J91: 2024 JD2 [a=0.97,e=0.10,i=20.8,H=24.6]

mpec at cfa.harvard.edu mpec at cfa.harvard.edu
Mon May 6 00:37:53 EDT 2024


M.P.E.C. 2024-J91                                   Issued 2024 May 6, 04:36 UT

     The Minor Planet Electronic Circulars contain information on unusual
         minor planets, routine data on comets and natural satellites,
         and occasional editorial announcements.  They are published
    on behalf of Division F of the International Astronomical Union by the
          Minor Planet Center, Smithsonian Astrophysical Observatory,
                          Cambridge, MA 02138, U.S.A.
			  
             Prepared using the Tamkin Foundation Computer Network

                              MPC at CFA.HARVARD.EDU
            URL https://www.minorplanetcenter.net/    ISSN 1523-6714

                                    2024 JD2                                    


Observations:
     K24J02D*1C2024 05 04.27499712 12 06.354+05 09 11.59         20.54GVEJ091G96
     K24J02D 1C2024 05 04.28021912 12 06.757+05 10 36.55         20.31GVEJ091G96
     K24J02D 1C2024 05 04.28543912 12 07.157+05 12 02.52               VEJ091G96
     K24J02D 1C2024 05 04.29067312 12 07.556+05 13 31.33         19.94GVEJ091G96
     K24J02D KC2024 05 04.33693812 12 11.538+05 26 08.41         20.41GVEJ091I52
     K24J02D KC2024 05 04.33786412 12 11.632+05 26 23.93               VEJ091I52
     K24J02D KC2024 05 04.33880112 12 11.660+05 26 39.01               VEJ091I52
     K24J02D KC2024 05 04.33974112 12 11.768+05 26 54.60         20.54GVEJ091I52
     K24J02D KC2024 05 04.36196312 12 13.774+05 32 58.88         20.68GVEJ091I52
     K24J02D KC2024 05 04.36289412 12 13.892+05 33 13.28         21.24GVEJ091I52
     K24J02D KC2024 05 04.36382412 12 13.993+05 33 29.12         20.68GVEJ091I52
     K24J02D KC2024 05 04.36475112 12 14.137+05 33 43.20         21.11GVEJ091I52
     K24J02D 1C2024 05 04.87826 12 13 19.51 +07 51 25.2          20.5 VXEJ091033
     K24J02D 1C2024 05 04.87933 12 13 19.60 +07 51 41.9          20.4 VXEJ091033
     K24J02D 1C2024 05 04.88149 12 13 19.80 +07 52 16.1          20.5 VXEJ091033
     K24J02D KC2024 05 06.17158212 15 52.283+13 18 54.25         19.76GVEJ091I52
     K24J02D KC2024 05 06.17476712 15 52.495+13 19 40.15         20.52GVEJ091I52
     K24J02D KC2024 05 06.17637812 15 52.632+13 20 03.41         20.48GVEJ091I52
     K24J02D KC2024 05 06.17955912 15 52.837+13 20 49.34         20.59GVEJ091I52

Observer details:
033 Karl Schwarzschild Observatory, Tautenburg.  Observers S. Melnikov, C.
    Hogner, F. Ludwig, M. Hartmann, B. Stecklum.  Measurer B. Stecklum.
    1.34-m f/3 Schmidt + CCD.
G96 Mt. Lemmon Survey.  Observer H. Groeller.  Measurers T. Beuden, V. F.
    Carvajal, D. Fay, J. B. Fazekas, D. C. Fuls, A. R. Gibbs, A. D. Grauer, H.
    Groeller, J. K. Hogan, R. A. Kowalski, S. M. Larson, G. J. Leonard, D.
    Rankin, R. L. Seaman, F. C. Shelly, K. W. Wierzchos.  1.5-m reflector +
    10K CCD.
I52 Steward Observatory, Mt. Lemmon Station.  Observers V. F. Carvajal, R. A.
    Kowalski.  Measurers T. Beuden, V. F. Carvajal, D. Fay, J. B. Fazekas, D.
    C. Fuls, A. R. Gibbs, A. D. Grauer, H. Groeller, J. K. Hogan, R. A.
    Kowalski, S. M. Larson, G. J. Leonard, D. Rankin, R. L. Seaman, F. C.
    Shelly, K. W. Wierzchos.  1.0-m prime focus + CCD.

Orbital elements:
2024 JD2                                                 Earth MOID = 0.0537 AU
Epoch 2024 Mar. 31.0 TT = JDT 2460400.5                 MPC                     
M 163.76216              (2000.0)            P               Q                  
n   1.03922081     Peri.  165.26193     +0.89142531     -0.39043772             
a   0.9653041      Node   220.29109     +0.37139987     +0.92031554             
e   0.1040858      Incl.   20.83835     +0.25965949     +0.02403530             
P   0.95           H   24.66          G   0.15           U   8                  
Residuals in seconds of arc
240504 G96  0.1+  0.1+    240504 I52  0.4+  0.1-    240504 033  0.2+  0.2-
240504 G96  0.0   1.0-    240504 I52  0.2-  0.6+    240506 I52  0.3+  0.1+
240504 G96  0.2-  0.9-    240504 I52  0.3+  0.2-    240506 I52  0.1-  0.0
240504 G96  0.4-  1.9+    240504 I52  0.5+  0.4+    240506 I52  0.1+  0.0
240504 I52  0.7+  0.4-    240504 I52  1.3+  0.7-    240506 I52  0.3-  0.1-
240504 I52  0.9+  0.0     240504 033  0.1-  0.2+
240504 I52  0.1+  0.3-    240504 033  0.1-  0.1-

Ephemeris:
2024 JD2                 a,e,i = 0.97, 0.10, 21                  q = 0.8648
Date    TT    R. A. (2000) Decl.     Delta      r    Elong.  Phase     V
2024 04 06    11 22 34.1 -76 15 21   0.1626  1.0645   108.9    62.8    23.1
...
2024 04 21    11 46 09.7 -53 35 25   0.08903 1.0654   131.0    45.4    21.3
...
2024 04 29    12 01 48.1 -21 14 18   0.06779 1.0633   145.1    32.8    20.3
...
2024 05 05    12 13 34.3 +08 24 39   0.07272 1.0607   134.4    42.8    20.8
2024 05 06    12 15 31.1 +12 37 47   0.07529 1.0602   131.4    45.5    20.9
2024 05 07    12 17 27.7 +16 32 08   0.07826 1.0596   128.6    48.1    21.1
...
2024 05 13    12 29 00.7 +33 49 19   0.1019  1.0557   113.8    61.1    22.0
...
2024 05 21    12 43 55.4 +45 55 06   0.1408  1.0491   101.4    71.0    23.0
...
2024 06 05    13 09 08.8 +55 29 33   0.2157  1.0326    88.7    79.2    24.2

A. U. Tomatic                (C) Copyright 2024 MPC           M.P.E.C. 2024-J91





More information about the Iaude mailing list